Other Public Products
Issued by NWS Grand Forks, ND

Home | Current Version | Previous Version | Graphics & Text | Print | Product List | Glossary On
Versions: 1 2 3 4 5 6 7 8 9 10 11 12 13 14 15 16 17 18 19 20 21 22 23 24 25 26 27 28 29 30 31 32 33 34 35 36 37 38 39 40 41 42 43 44 45 46 47 48 49 50
000
FPUS83 KFGF 291031
OPUFGF
PRAIRIE TO PINES WEATHER ROUNDUP
NATIONAL WEATHER SERVICE EASTERN NORTH DAKOTA/GRAND FORKS ND
500 AM CDT FRI APR 29 2016

 **SATELLITE DATA USED TO AUGMENT SKY COVER AT AUTOMATED STATIONS**
 *****  WEATHER ACROSS EASTERN NORTH DAKOTA  *****

CITY           SKY/WX    TMP DP  RH WIND       PRES   REMARKS
GRAND FORKS    CLOUDY    33  27  78 N5        30.19R
GRAND FORKS AF CLOUDY    34  27  75 N6        30.20R
GRAND CITY NWS NOT AVBL
BUXTON           N/A     35  30  82 N3          N/A
DEVILS LAKE    PTCLDY    36  24  62 CALM      30.20R
FARGO          PTCLDY    37  32  82 E5        30.15S
WAHPETON ARPT  CLOUDY    34  32  93 S7        30.16F
$$

 *****  WEATHER ACROSS CENTRAL AND WESTERN NORTH DAKOTA  *****

CITY           SKY/WX    TMP DP  RH WIND       PRES   REMARKS
JAMESTOWN      CLOUDY    32  27  81 N7        30.15F
BISMARCK       CLOUDY    37  33  85 NE6       30.17S
MINOT          CLOUDY    39  22  50 N3        30.20R
MINOT AFB      PTCLDY    37  22  52 NE7       30.20R
GARRISON         N/A     32  24  72 N3        30.18R
WILLISTON      MOCLDY    35  24  64 CALM      30.18R
DICKINSON      CLOUDY    36  25  64 E7        30.12S
HETTINGER      CLOUDY    38  35  89 CALM      30.13S
$$

 *****  OTHER OBSERVATIONS NORTHEAST NORTH DAKOTA  *****

CITY           SKY/WX    TMP DP  RH WIND       PRES   REMARKS
WALHALLA       FAIR      32  23  69 NW6       30.24R
LANGDON        FAIR      32  21  64 NE5       30.21S
CAVALIER       FAIR      34  25  69 NW7       30.23S
GRAFTON        FAIR      36  27  69 N9        30.23S
CANDO          FAIR      30  23  74 N6        30.23S WCI  24
FORT TOTTEN      N/A     37  22  54 CALM      29.95S
ROLLA          FAIR      30  18  59 N9        30.23S WCI  22
RUGBY          FAIR      36  23  60 NE8       30.20S
 ***** THE ABOVE OBSERVATIONS ARE NON NWS ARE NOT QUALITY
        CONTROLLED AND MAY MIS-REPORT RAIN FOR SNOW...
$$

 *****  OTHER OBSERVATIONS SOUTHEAST NORTH DAKOTA *****

CITY           SKY/WX    TMP DP  RH WIND       PRES   REMARKS
COOPERSTOWN    NOT AVBL
VALLEY CITY    FAIR      37  27  65 N8        30.17F
OAKES            N/A    N/A N/A N/A MISG        N/A
GWINNER        FAIR      36  34  93 SW7       30.16R
SHEYENNE NWR     N/A     33  28  83 NW2       29.95S
BUFFALO          N/A     36  25  65 N8          N/A
WYNDMERE         N/A     37  36  93 S5          N/A
 ***** THE ABOVE OBSERVATIONS ARE NON NWS ARE NOT QUALITY
       CONTROLLED AND MAY MIS-REPORT RAIN FOR SNOW...
$$

  *****  WEATHER ACROSS NORTHERN MINNESOTA  *****

CITY           SKY/WX    TMP DP  RH WIND       PRES   REMARKS
FLAG ISLAND    CLEAR     39  34  81 NE7       30.22R
WARROAD        CLEAR     36  30  80 N3        30.22S
ROSEAU         CLEAR     34  28  80 N3        30.22R
HALLOCK        CLOUDY    34  27  75 NE6       30.22R
THF RVR FALLS  PTCLDY    39  27  60 NE8       30.20R
HALSTAD        NOT AVBL
FOSSTON        PTCLDY    34  27  75 NE5       30.17S
BAUDETTE       CLEAR     34  27  75 CALM      30.20R
WASKISH        CLOUDY    36  28  75 NE5       30.19R
CROOKSTON      CLOUDY    37  28  70 E7        30.19S
$$
  *****  WEATHER ACROSS CENTRAL AND WEST MINNESOTA  *****

CITY           SKY/WX    TMP DP  RH WIND       PRES   REMARKS
BEMIDJI        PTCLDY    29  26  87 CALM      30.16S
PARK RAPIDS    CLOUDY    35  32  88 CALM      30.15S
WADENA         FOG       30  30 100 CALM      30.15F VSB 1/2
DETROIT LAKES  CLOUDY    37  36  93 CALM      30.17S
MOORHEAD       CLOUDY    37  34  87 E3        30.16S
FERGUS FALLS   PTCLDY    37  37 100 CALM      30.16S
ELBOW LAKE     FAIR      37  37 100 W3        30.17S
MORRIS MN      CLOUDY    36  36 100 W3        30.16S FOG
STAPLES        CLOUDY    32  30  93 CALM      30.16S
WHEATON        CLEAR     39  37  93 SW5       30.19S
$$
  *****  WEATHER ELSEWHERE ACROSS MINNESOTA  *****

CITY           SKY/WX    TMP DP  RH WIND       PRES   REMARKS
DULUTH         CLOUDY    31  25  78 N5        30.15R
INTRNTL FALLS  CLEAR     34  29  82 N6        30.19R
ELY            CLOUDY    34  30  86 CALM      30.17S
CLOQUET        CLOUDY    30  25  80 NW6       30.16S WCI  24
BRAINERD       CLOUDY    30  24  78 CALM      30.17R
HIBBING        CLOUDY    25  23  92 NW3       30.16S
ALEXANDRIA     FOG       36  35  96 NW5       30.15S VSB 1/2
SAINT CLOUD    FOG       33  32  96 CALM      30.15S VSB 1
MINNEAPOLIS    CLOUDY    35  35 100 CALM      30.17R
$$

  *****  WEATHER ACROSS SOUTH DAKOTA  *****

CITY           SKY/WX    TMP DP  RH WIND       PRES   REMARKS
SIOUX FALLS    CLOUDY    40  37  89 NE5       30.13S
BROOKINGS      MOCLDY    36  34  93 N5        30.12F
WATERTOWN      CLOUDY    34  32  92 CALM      30.14S FOG
HURON          CLOUDY    38  36  92 N7        30.14F
SISSETON         N/A     39  36  89 SW3       30.16S
ABERDEEN       FOG       34  32  92 CALM      30.16F VSB 1/2
MITCHELL       CLOUDY    40  37  89 CALM      30.16R
PIERRE         CLOUDY    41  37  86 NE9       30.12R
MOBRIDGE       MOCLDY    38  36  92 CALM      30.12S
RAPID CITY     CLOUDY    36  33  89 CALM      30.11R
$$

  *****  SOME WEATHER IN NEARBY STATES *****

CITY           SKY/WX    TMP DP  RH WIND       PRES   REMARKS
GLASGOW MT     CLOUDY    38  34  85 E9        30.12S
GREAT FALLS MT CLOUDY    36  33  89 E5        29.99S
CHEYENNE WY    CLOUDY    32  31  96 SE15      30.02R FOG     WCI  22
SCOTTSBLUFF NE CLOUDY    35  33  92 SE7       30.10R
OMAHA NE       CLOUDY    45  41  86 N8        30.12S
DES MOINES IA  CLOUDY    47  42  83 N6        30.10F
DAVENPORT IA   CLOUDY    43  42  97 NW5       30.11R FOG
CHICAGO IL     CLOUDY    42  41  96 N10       30.02S
EAU CLAIRE WI  CLOUDY    40  38  93 N3        30.14S
LA CROSSE WI   CLOUDY    40  36  86 NW7       30.13R
$$

  *****  SOME NATIONAL WEATHER *****

CITY           SKY/WX    TMP DP  RH WIND       PRES   REMARKS
LA GUARDIA NY  CLOUDY    50  35  56 E9        30.07R
RALEIGH NC     FOG       61  60  97 N7        29.96R VSB 1/2
ATLANTA GA     CLEAR     64  57  78 SW3       30.00S
NEW ORLEANS LA MOCLDY    74  71  91 SE8       29.90S
OKLAHOMA CITY  LGT RAIN  57  54  89 NE15      29.79F
ALBUQUERQUE NM LGT RAIN  44  40  85 NE13      29.87F
SALT LAKE CITY MOCLDY    45  34  65 W5        29.85S
LOS ANGELES CA MOCLDY    57  50  77 E6        29.97F
BOISE ID       CLOUDY    51  38  60 NW13      29.89S
SEATTLE WA     CLOUDY    50  43  77 SW6       30.09F
$$

*** WEATHER ACROSS MANITOBA...SASKATCHEWAN AND ONTARIO ***
                ***ONTARIO***

CITY           SKY/WX    TMP DP  RH WIND       PRES   REMARKS
GERALDTON      MOCLDY    28  27  93 CALM      30.20R
THUNDER BAY    PTCLDY    27  25  93 SW6       30.19S WCI  20
SIOUX LOOKOUT  CLOUDY    39  30  70 VRB2      30.22R
TORONTO        MOCLDY    41  23  48 E7        30.07S
BIG TROUT LK   CLOUDY    30  27  86 VRB2      30.31R
PICKLE LAKE    NOT AVBL
DRYDEN         CLOUDY    39  30  70 N3        30.22R
KENORA         PTCLDY    34  28  80 NE7       30.23R
$$
                *** MANITOBA***

CITY           SKY/WX    TMP DP  RH WIND       PRES   REMARKS
BRANDON        CLEAR     30  16  55 NE9       30.25R WCI  22
DAUPHIN        CLEAR     23  16  74 W8        30.29S WCI  14
ISLAND LAKE    PTCLDY    27  18  69 N5        30.36R WCI  21
PILOT MOUND      N/A     32  18  55 E3          N/A
THE PAS        CLEAR     30  21  69 SE3       30.30R
THOMPSON       MOCLDY    37  16  41 SE5       30.34R
WINNIPEG       CLEAR     30  21  69 NE6       30.25R WCI  24
LYNN LAKE      CLOUDY    36  27  69 NE3       30.22R
CHURCHILL      PTCLDY    19  18  93 E9        30.45S WCI   9
GILLAM         MOCLDY    25  19  80 E5        30.40S WCI  19
$$
                ***SASKATCHEWAN***

CITY           SKY/WX    TMP DP  RH WIND       PRES   REMARKS
ESTEVAN        PTCLDY    32  16  51 E7        30.20S
KINDERSLEY     PTCLDY    37  21  52 SE13      30.08F
LLOYDMINSTER   CLEAR     37  27  65 SE9       30.08S
PRINCE ALBERT  PTCLDY    30  27  86 E6        30.20S WCI  24
REGINA         CLEAR     32  16  51 SE10      30.20S WCI  24
YORKTON        CLEAR     30  23  74 SE3       30.26R   C1F1C2F2C3F3C4F4C5F5C6F6C7F7C8F8C9F9CaFaCbFbCcFcCdFdCe!



USA.gov is the U.S. government's official web portal to all federal, state and local government web resources and services.